Location: Newark
(49.3000°N, 9.4667°E)
Time: 12:58:19
(UTC+00:00)

Courier 1B - All Passes

Search period start: 23 May 2019 00:00
Search period end: 02 June 2019 00:00
Orbit: 962 x 1209 km, 28.3° (Epoch: 22 May)

Date Brightness Start Highest point End Pass type
(mag) Time Alt. Az. Time Alt. Az. Time Alt. Az.
23 May - 07:14:02 10° S 07:14:34 10° S 07:15:06 10° S daylight
24 May - 08:13:07 10° S 08:13:42 10° S 08:14:17 10° S daylight
25 May - 07:19:12 10° SSW 07:20:20 10° S 07:21:28 10° S daylight
26 May - 06:25:51 10° S 06:26:59 10° S 06:28:06 10° SSE daylight
27 May - 05:33:09 10° S 05:33:37 10° S 05:34:05 10° S daylight
28 May - 06:31:59 10° SSW 06:32:45 10° S 06:33:31 10° S daylight
29 May - 05:37:55 10° SSW 05:39:23 11° S 05:40:51 10° SSE daylight
30 May - 04:44:22 10° SSW 04:46:01 11° S 04:47:39 10° SSE daylight
31 May - 03:51:10 10° S 03:52:38 11° S 03:54:04 10° SSE daylight
01 Jun - 02:58:40 10° S 02:59:14 10° S 02:59:47 10° SSE daylight
01 Jun - 04:50:03 10° SSW 04:51:47 11° S 04:53:29 10° S daylight
